VLG26QB LEAL-LEPA

Flight info

Callsign VLG26QB
Flight time 0h 44m
Altitude 22000
Route MITOS N851 RUXET
Aircraft A320/M-SDE3FGHIRWY/LB1

Departure

Time 2026-05-04 16:22
Airport Alicante-Elche Miguel Hernández Airport (LEAL)

Arrival

Time 2026-05-04 17:07
Airport Palma de Mallorca Airport (LEPA)
Time Latitude Longitude Altitude Speed Heading
2026-05-04 16:07 38.28578 -0.55651 97 ft 0 kts 11°
2026-05-04 16:14 38.28552 -0.55657 98 ft 2 kts 11°
2026-05-04 16:15 38.28513 -0.55693 96 ft 3 kts 93°
2026-05-04 16:16 38.28514 -0.55704 95 ft 0 kts 96°
2026-05-04 16:17 38.28495 -0.55619 96 ft 11 kts 128°
2026-05-04 16:18 38.28383 -0.55730 101 ft 12 kts 279°
2026-05-04 16:18 38.28402 -0.55866 103 ft 16 kts 281°
2026-05-04 16:19 38.28459 -0.56291 111 ft 25 kts 279°
2026-05-04 16:19 38.28525 -0.56739 124 ft 24 kts 282°
2026-05-04 16:20 38.28593 -0.57228 146 ft 12 kts 277°
2026-05-04 16:20 38.28538 -0.57432 154 ft 17 kts 190°
2026-05-04 16:21 38.28343 -0.56786 127 ft 87 kts 99°
2026-05-04 16:22 38.28000 -0.54355 414 ft 161 kts 104°
2026-05-04 16:22 38.27527 -0.49947 2207 ft 184 kts 88°
2026-05-04 16:23 38.29604 -0.44872 3042 ft 254 kts 56°
2026-05-04 16:24 38.33519 -0.37069 5890 ft 285 kts 60°
2026-05-04 16:25 38.34807 -0.32176 7388 ft 297 kts 71°
2026-05-04 16:26 38.37999 -0.22041 10267 ft 323 kts 66°
2026-05-04 16:26 38.40984 -0.13326 10881 ft 388 kts 67°
2026-05-04 16:27 38.43137 -0.06860 12078 ft 401 kts 67°
2026-05-04 16:28 38.46416 0.03126 13933 ft 415 kts 68°
2026-05-04 16:28 38.49737 0.13492 15607 ft 426 kts 68°
2026-05-04 16:29 38.54293 0.27758 17703 ft 441 kts 68°
2026-05-04 16:30 38.57802 0.38775 19105 ft 451 kts 69°
2026-05-04 16:31 38.60188 0.46277 19970 ft 458 kts 69°
2026-05-04 16:31 38.63814 0.57732 21217 ft 468 kts 69°
2026-05-04 16:32 38.67100 0.69564 21919 ft 481 kts 81°
2026-05-04 16:33 38.68065 0.78209 21914 ft 494 kts 84°
2026-05-04 16:33 38.69021 0.86925 21923 ft 495 kts 84°
2026-05-04 16:34 38.70004 0.95647 21928 ft 495 kts 84°
2026-05-04 16:34 38.70491 1.00009 21934 ft 494 kts 84°
2026-05-04 16:35 38.71906 1.13086 21940 ft 494 kts 84°
2026-05-04 16:35 38.73294 1.26150 21941 ft 493 kts 84°
2026-05-04 16:36 38.73757 1.30509 21940 ft 493 kts 84°
2026-05-04 16:36 38.74680 1.39210 21937 ft 493 kts 84°
2026-05-04 16:37 38.75604 1.47908 21937 ft 493 kts 84°
2026-05-04 16:37 38.76062 1.52260 21937 ft 493 kts 84°
2026-05-04 16:37 38.76966 1.60960 21937 ft 492 kts 84°
2026-05-04 16:38 38.77870 1.69670 21941 ft 492 kts 84°
2026-05-04 16:39 38.79197 1.82671 21934 ft 492 kts 84°
2026-05-04 16:39 38.80715 1.91223 21931 ft 494 kts 69°
2026-05-04 16:40 38.84089 1.98846 21932 ft 492 kts 51°
2026-05-04 16:40 38.88310 2.05761 21930 ft 492 kts 51°
2026-05-04 16:41 38.92504 2.12703 21698 ft 488 kts 51°
2026-05-04 16:41 38.98665 2.22967 19522 ft 479 kts 51°
2026-05-04 16:42 39.04659 2.32948 17674 ft 463 kts 51°
2026-05-04 16:43 39.08450 2.39277 17398 ft 430 kts 51°
2026-05-04 16:43 39.11980 2.45184 17139 ft 403 kts 51°
2026-05-04 16:43 39.13665 2.48005 17009 ft 391 kts 51°
2026-05-04 16:44 39.21356 2.56453 16211 ft 349 kts 31°
2026-05-04 16:45 39.25355 2.59931 15080 ft 344 kts 31°
2026-05-04 16:46 39.29940 2.63932 14299 ft 337 kts 31°
2026-05-04 16:46 39.33299 2.66873 13728 ft 337 kts 31°
2026-05-04 16:47 39.37202 2.70291 12861 ft 340 kts 31°
2026-05-04 16:47 39.40971 2.73603 12586 ft 312 kts 31°
2026-05-04 16:48 39.45362 2.78992 11668 ft 289 kts 74°
2026-05-04 16:48 39.45627 2.81517 11220 ft 281 kts 99°
2026-05-04 16:49 39.44096 2.85857 10495 ft 260 kts 143°
2026-05-04 16:49 39.41026 2.87760 9941 ft 239 kts 180°
2026-05-04 16:50 39.37923 2.86913 9301 ft 226 kts 212°
2026-05-04 16:50 39.36300 2.83649 8548 ft 229 kts 269°
2026-05-04 16:51 39.38032 2.80246 7858 ft 251 kts 331°
2026-05-04 16:51 39.39760 2.79823 7510 ft 261 kts
2026-05-04 16:51 39.42753 2.82293 6841 ft 266 kts 58°
2026-05-04 16:52 39.44595 2.86440 6187 ft 265 kts 62°
2026-05-04 16:52 39.45474 2.88530 5872 ft 263 kts 62°
2026-05-04 16:53 39.47204 2.92664 5243 ft 260 kts 62°
2026-05-04 16:53 39.49751 2.98784 4317 ft 255 kts 62°
2026-05-04 16:54 39.50589 3.00804 4066 ft 252 kts 62°
2026-05-04 16:55 39.53854 3.08766 3988 ft 251 kts 62°
2026-05-04 16:55 39.55480 3.12746 3980 ft 250 kts 62°
2026-05-04 16:56 39.57110 3.16728 3979 ft 249 kts 62°
2026-05-04 16:56 39.59548 3.22673 3972 ft 249 kts 62°
2026-05-04 16:57 39.60092 3.24011 3974 ft 249 kts 62°
2026-05-04 16:57 39.61709 3.27955 3972 ft 249 kts 60°
2026-05-04 16:58 39.66058 3.29743 3968 ft 236 kts 325°
2026-05-04 16:58 39.67160 3.28255 3971 ft 228 kts 293°
2026-05-04 16:59 39.68106 3.24339 3970 ft 228 kts 280°
2026-05-04 17:00 39.69414 3.16253 3974 ft 235 kts 279°
2026-05-04 17:00 39.70389 3.09860 3977 ft 243 kts 273°
2026-05-04 17:01 39.69463 3.05782 3980 ft 239 kts 238°
2026-05-04 17:01 39.67824 3.02291 3982 ft 215 kts 238°
2026-05-04 17:02 39.66370 2.99187 3938 ft 188 kts 238°
2026-05-04 17:02 39.65043 2.96359 3517 ft 181 kts 239°
2026-05-04 17:03 39.64388 2.94963 3288 ft 181 kts 238°
2026-05-04 17:03 39.63733 2.93567 3059 ft 181 kts 238°
2026-05-04 17:03 39.62427 2.90788 2565 ft 181 kts 237°
2026-05-04 17:04 39.61129 2.88026 2103 ft 174 kts 237°
2026-05-04 17:04 39.59949 2.85519 1686 ft 151 kts 236°
2026-05-04 17:05 39.58881 2.83252 1297 ft 150 kts 236°
2026-05-04 17:05 39.57858 2.81049 937 ft 137 kts 236°
2026-05-04 17:06 39.56851 2.78953 544 ft 135 kts 240°
2026-05-04 17:06 39.56372 2.77896 355 ft 135 kts 235°
2026-05-04 17:07 39.55408 2.75884 44 ft 126 kts 237°
2026-05-04 17:07 39.55136 2.75311 38 ft 90 kts 239°
2026-05-04 17:07 39.54892 2.74789 38 ft 38 kts 239°
2026-05-04 17:07 39.54812 2.74489 38 ft 34 kts 261°
2026-05-04 17:08 39.54805 2.74349 38 ft 10 kts 269°
2026-05-04 17:08 39.54811 2.74177 38 ft 10 kts 288°
2026-05-04 17:08 39.54849 2.74108 38 ft 9 kts 326°
2026-05-04 17:09 39.54898 2.74070 38 ft 8 kts 329°
2026-05-04 17:09 39.54939 2.74036 38 ft 6 kts 316°
2026-05-04 17:09 39.54938 2.73996 38 ft 4 kts 242°
2026-05-04 17:10 39.54852 2.73855 38 ft 11 kts 268°
2026-05-04 17:10 39.54851 2.73826 38 ft 0 kts 268°